Weather History for Campo, CA

Change the Weather History Date:

Saturday, October 26, 2013

  Actual Average Record
Temperature  
Mean Temperature 64 °F 58 °F  
Max Temperature 82 °F 77 °F 95 °F (1990)
Min Temperature 45 °F 40 °F 28 °F (1970)
Degree Days  
Heating Degree Days 1 7  
Month to date heating degree days 175 123  
Since 1 July heating degree days 218 173  
Cooling Degree Days 0 0  
Month to date cooling degree days 2 27  
Year to date cooling degree days 909 838  
Growing Degree Days 14 (Base 50)    
Moisture  
Dew Point 27 °F    
Average Humidity 31    
Maximum Humidity 49    
Minimum Humidity 12    
Precipitation  
Precipitation 0.00 in 0.03 in 0.99 in (1996)
Month to date precipitation 0.76 0.65  
Year to date precipitation 7.48 12.16  
Since 1 July precipitation 2.70 2.01  
Snow  
Snow 0.00 in - - ()
Month to date snowfall 0.0  
Year to date snowfall 0.0  
Since 1 July snowfall 0.0  
Snow Depth 0.00 in    
Sea Level Pressure  
Sea Level Pressure 30.00 in    
Wind  
Wind Speed 8 mph (NE)    
Max Wind Speed 18 mph    
Max Gust Speed 22 mph    
T = Trace of Precipitation, MM = Missing Value Source: NWS Daily Summary

Daily Weather History Graph

Daily Weather History Graph

Search for Another Location

Airport:

Trip Planner

Search our weather history database for the weather conditions in past years. The results will help you decide how hot, cold, wet, or windy it might be!

Date:

Astronomy

Oct. 26, 2013 Rise Set
Actual Time 6:58 AM PDT 6:00 PM PDT
Civil Twilight 6:33 AM PDT 6:25 PM PDT
Nautical Twilight 6:04 AM PDT 6:54 PM PDT
Astronomical Twilight 5:35 AM PDT 7:23 PM PDT
Moon No Moon Rise 1:14 PM PDT (10/26)
Length of Visible Light 11h 52m
Length of Day
11h 01m
Waning Gibbous, 52% of the Moon is Illuminated
Oct 26
Waning Gibbous
Oct 26
Last Quarter
Nov 3
New
Nov 9
First Quarter
Nov 17
Full

Hourly Weather History & Observations

Time (PDT) Temp. Windchill Dew Point Humidity Pressure Visibility Wind Dir Wind Speed Gust Speed Precip Events Conditions
12:52 AM 50.0 °F - 26.1 °F 39% 30.01 in - NE 5.8 mph - N/A   Unknown
1:52 AM 48.9 °F - 27.0 °F 43% 30.02 in - ENE 5.8 mph - N/A   Unknown
2:52 AM 48.0 °F - 27.0 °F 44% 30.01 in - NE 6.9 mph - N/A   Unknown
3:52 AM 46.9 °F - 27.0 °F 46% 30.01 in - ENE 8.1 mph - N/A   Unknown
4:52 AM 46.9 °F - 27.0 °F 46% 30.01 in - NE 5.8 mph - N/A   Unknown
5:52 AM 48.0 °F - 27.0 °F 44% 30.03 in - NE 5.8 mph - N/A   Unknown
6:52 AM 45.0 °F 41.8 °F 27.0 °F 49% 30.05 in - NE 5.8 mph - N/A   Unknown
7:52 AM 48.9 °F - 28.9 °F 46% 30.06 in - ENE 5.8 mph - N/A   Unknown
8:52 AM 61.0 °F - 33.1 °F 35% 30.06 in - Calm Calm - N/A   Unknown
9:52 AM 73.0 °F - 34.0 °F 24% 30.04 in - Calm Calm - N/A   Unknown
10:52 AM 80.1 °F - 24.1 °F 13% 30.02 in - NE 12.7 mph 17.3 mph N/A   Unknown
11:52 AM 81.0 °F - 25.0 °F 13% 30.01 in - ENE 12.7 mph - N/A   Unknown
12:52 PM 81.0 °F - 24.1 °F 12% 29.99 in - ENE 9.2 mph 19.6 mph N/A   Unknown
1:52 PM 82.0 °F - 25.0 °F 12% 29.96 in - NE 13.8 mph 20.7 mph N/A   Unknown
2:52 PM 82.0 °F - 24.1 °F 12% 29.96 in - ENE 13.8 mph 19.6 mph N/A   Unknown
3:52 PM 80.1 °F - 25.0 °F 13% 29.95 in - NE 13.8 mph 21.9 mph N/A   Unknown
4:52 PM 78.1 °F - 26.1 °F 15% 29.94 in - NE 13.8 mph - N/A   Unknown
5:52 PM 73.0 °F - 27.0 °F 18% 29.95 in - NE 8.1 mph - N/A   Unknown
6:52 PM 70.0 °F - 27.0 °F 20% 29.97 in - Calm Calm - N/A   Unknown
7:52 PM 60.1 °F - 28.0 °F 30% 29.99 in - Calm Calm - N/A   Unknown
8:52 PM 54.0 °F - 28.0 °F 37% 29.98 in - Calm Calm - N/A   Unknown
9:52 PM 54.0 °F - 28.9 °F 38% 29.97 in - Calm Calm - N/A   Unknown
10:52 PM 54.0 °F - 28.9 °F 38% 29.96 in - NNE 3.5 mph - N/A   Unknown
11:52 PM 54.0 °F - 28.9 °F 38% 29.95 in - NE 5.8 mph - N/A   Unknown